カタログに戻る

USA 366

運用中軍事VLEO
NORAD 59826·PAYLOAD·🇺🇸 United States

打ち上げ May 22, 2024 から Vandenberg Space Force Base

Loading…

次のパス (今後24時間)

TLE

古いSource: Mike McCants

元期: Aug 25, 2026, 20:20 UTC

1 59826U 24096N   26237.84743998 0.00000000  00000-0  00000-0 0    06
2 59826  70.0170 137.0430 0003000  49.3246 310.6753 14.96713175    05

AllMySatでUSA 366をリアルタイム追跡

Download on the App Store